[Iaude] MPEC U256: 2022 QE265 [a=2.33,e=0.58,i=7.1,H=28.9]
    mpec at marsden.cfa.harvard.edu 
    mpec at marsden.cfa.harvard.edu
       
    Wed Oct 25 17:24:50 EDT 2023
    
    
  
M.P.E.C. 2023-U256                             Issued 2023 October 25, 21:23 UT
     The Minor Planet Electronic Circulars contain information on unusual
         minor planets, routine data on comets and natural satellites,
         and occasional editorial announcements.  They are published
    on behalf of Division F of the International Astronomical Union by the
          Minor Planet Center, Smithsonian Astrophysical Observatory,
                          Cambridge, MA 02138, U.S.A.
			  
             Prepared using the Tamkin Foundation Computer Network
                              MPC at CFA.HARVARD.EDU
            URL https://www.minorplanetcenter.net/    ISSN 1523-6714
                                   2022 QE265                                   
Observations:
     K22QQ5E* C2022 08 24.50939421 25 31.164-22 07 40.19         15.3 GVEU256P07
     K22QQ5E  C2022 08 24.62282122 07 57.622-08 46 15.38         15.4 GVEU256P07
     K22QQ5E  C2022 08 24.67438922 21 51.523-03 52 41.88         16.6 GVEU256P07
     K22QQ5E  C2022 08 24.67448022 21 52.872-03 52 13.30         16.7 GVEU256P07
     K22QQ5E  C2022 08 24.71711822 31 34.668-00 23 28.28         16.6 GVEU256P07
     K22QQ5E  C2022 08 24.76580322 41 06.487+03 01 03.43         16.1 GVEU256P07
     K22QQ5E  C2022 08 24.82010322 50 14.455+06 12 29.63         16.9 GVEU256P07
Observer details:
P07 Space Surveillance Telescope, HEH Station.  Observers M. Blythe, R.
    Brungard, P. Festler, T. McVey, J. Paige, G. Spitz, L. Banks.  Measurers
    M. Cornell, M. Kotson, R. Rios, J. Ruprecht, J. Vaillancourt, J. Varey, H.
    Viggh, D. Woods, R. Monardez, A. Lue.  3.5-m f/1. Reflector + CCD.
Orbital elements:
2022 QE265                                               Earth MOID = 0.0011 AU
Epoch 2023 Sept. 13.0 TT = JDT 2460200.5                Veres                   
M 111.27038              (2000.0)            P               Q                  
n   0.27688717     Peri.  338.42051     +0.63698562     +0.76855341             
a   2.3313143      Node   331.04565     -0.68796672     +0.53177188             
e   0.5766920      Incl.    7.09452     -0.34778026     +0.35573069             
P   3.56           H   28.96          G   0.15           U   9                  
Residuals in seconds of arc
220824 P07  0.0   0.0     220824 P07  0.1+  0.1-    220824 P07  0.1+  0.0
220824 P07  0.0   0.0     220824 P07  0.1-  0.2+
220824 P07  0.0   0.1+    220824 P07  0.0   0.2-
Ephemeris:
2022 QE265               a,e,i = 2.33, 0.58, 7                   q = 0.9869
Date    TT    R. A. (2000) Decl.     Delta      r    Elong.  Phase     V
2023 09 25    08 20 41.0 +24 05 02   3.7083  3.3160    59.6    15.1
...
2023 10 10    08 33 05.7 +23 31 18   3.5429  3.3610    71.4    16.4
...
2023 10 18    08 38 27.4 +23 17 22   3.4460  3.3837    78.1    16.7
...
2023 10 24    08 41 49.2 +23 09 16   3.3706  3.4002    83.2    16.9
2023 10 25    08 42 19.4 +23 08 08   3.3578  3.4029    84.1    16.9
2023 10 26    08 42 48.6 +23 07 04   3.3450  3.4056    85.0    16.9
...
2023 11 01    08 45 21.3 +23 02 07   3.2676  3.4214    90.4    16.9
...
2023 11 09    08 47 41.9 +22 59 36   3.1637  3.4417    97.8    16.6
...
2023 11 24    08 48 28.7 +23 08 49   2.9741  3.4773   112.8    15.2    34.9
M. P. C. Staff               (C) Copyright 2023 MPC           M.P.E.C. 2023-U256
    
    
More information about the Iaude
mailing list